Location: Santa Fe
(35.6870°N, 105.9370°W)
Time: 13:24:12
(UTC-07:00)

Amateur Radio Satellites - All Passes

Search period start: 22 January 2017 12:54
Search period end: 23 January 2017 12:54
Location: Santa Fe, 35.6870°N, 105.9370°W

Satellite Date Start Highest point End Downlink Frequencies (MHz)
Time Altitude Azimuth
Oscar 19 22 Jan 12:54:37 12:59:48 78° 256° (WSW) 13:05:03 437.125/150
AO-7 22 Jan 12:54:56 12:59:45 17° 53° (NE) 13:04:32 29.400- 29.500
AIST 1 22 Jan 12:55:50 12:59:32 28° 90° (E) 13:03:15
JUGNU 22 Jan 13:06:41 13:09:39 14° 171° (S) 13:12:37 437.505
CUBEBUG 1 22 Jan 13:07:46 13:10:08 15° 294° (WNW) 13:12:30 437.445
Cosmos 2504 22 Jan 13:13:48 13:19:46 21° 83° (E) 13:25:29 435.465 / 435.565
AO-85 22 Jan 13:16:12 13:21:00 73° 300° (WNW) 13:25:28 145.980
Cosmos 2491 22 Jan 13:21:38 13:30:27 85° 265° (W) 13:39:16 435.465 / 435.565
YUBILEINY 22 Jan 13:23:00 13:31:19 49° 89° (E) 13:39:40 435.215
Gurwin Techsat 1B 22 Jan 13:27:00 13:32:17 74° 258° (WSW) 13:37:37 435.225
AISAT 22 Jan 13:30:29 13:32:37 13° 294° (WNW) 13:34:44 437.250
50 SAT 22 Jan 13:31:20 13:32:29 11° 293° (WNW) 13:33:38 437.505
ITUPSAT 1 22 Jan 13:36:32 13:38:14 12° 92° (E) 13:39:56 437.325
DANDE 22 Jan 13:38:22 13:44:57 27° 71° (ENE) 13:51:41 436.750
ITAMSAT 1 22 Jan 13:43:23 13:47:50 30° 69° (ENE) 13:52:17 435.822/435.867
TISAT 1 22 Jan 13:57:11 14:01:18 63° 285° (WNW) 14:05:26 437.305
BEESAT 22 Jan 14:07:32 14:11:36 27° 97° (E) 14:15:40 436.000
CUSAT 1 22 Jan 14:07:43 14:15:43 81° 263° (W) 14:22:43 437.405
SWISSCUBE 22 Jan 14:09:14 14:13:34 32° 98° (E) 14:17:50 437.505
UKube-1 22 Jan 14:23:25 14:24:26 11° 296° (WNW) 14:25:27 .
AIST 1 22 Jan 14:33:53 14:37:06 20° 285° (WNW) 14:40:18
SRMSAT 22 Jan 14:41:48 14:43:25 11° 166° (SSE) 14:45:04 437.500
AO-7 22 Jan 14:42:53 14:51:14 82° 71° (ENE) 14:59:38 29.400- 29.500
BEESAT 3 22 Jan 14:45:35 14:48:48 26° 112° (ESE) 14:52:04 437.485
JUGNU 22 Jan 14:54:18 14:57:53 16° 182° (S) 15:01:28 437.505
Cosmos 2504 22 Jan 15:03:41 15:12:23 71° 278° (W) 15:20:34 435.465 / 435.565
ITUPSAT 1 22 Jan 15:11:39 15:16:24 61° 286° (WNW) 15:21:08 437.325
O/OREOS (USA 219) 22 Jan 15:11:48 15:15:44 28° 63° (ENE) 15:19:38 437.305
MOZHAYETS 4 22 Jan 15:19:00 15:23:31 49° 99° (E) 15:28:00
DANDE 22 Jan 15:20:04 15:28:05 65° 266° (W) 15:36:13 436.750
YUBILEINY 22 Jan 15:20:35 15:28:16 33° 287° (WNW) 15:36:01 435.215
Cosmos 2491 22 Jan 15:22:02 15:25:51 14° 283° (WNW) 15:29:42 435.465 / 435.565
ITAMSAT 1 22 Jan 15:22:50 15:27:12 28° 263° (W) 15:31:37 435.822/435.867
BEESAT 2 22 Jan 15:35:05 15:38:45 39° 114° (ESE) 15:42:28 435.950
M-CUBED/EXP-1 PRIME 22 Jan 15:35:50 15:37:45 15° 100° (E) 15:39:38 437.505
KKS-1 22 Jan 15:41:56 15:45:31 24° 96° (E) 15:49:06 437.445
BEESAT 22 Jan 15:45:17 15:49:16 27° 291° (WNW) 15:53:15 436.000
SWISSCUBE 22 Jan 15:47:23 15:51:07 23° 292° (WNW) 15:54:51 437.505
HORYU 2 22 Jan 15:47:38 15:50:21 16° 66° (ENE) 15:53:03 437.375
CUSAT 1 22 Jan 15:53:01 15:56:10 13° 282° (WNW) 15:59:13 437.405
GOMX 1 22 Jan 15:54:19 15:58:09 20° 68° (ENE) 16:01:53 467.674
BRITE-PL 22 Jan 16:00:42 16:06:17 59° 74° (ENE) 16:11:48 437.365/2234.400
SO-50 22 Jan 16:07:19 16:11:45 56° 58° (ENE) 16:16:07 436.795
AUBIESAT-1 22 Jan 16:09:24 16:12:27 34° 103° (ESE) 16:15:28 437.475
CUBESAT XI-V 22 Jan 16:11:42 16:15:35 25° 95° (E) 16:19:26 437.345
DOVE 4 22 Jan 16:22:33 16:24:57 14° 67° (ENE) 16:27:18 437.250
BEESAT 3 22 Jan 16:23:16 16:26:21 22° 308° (NW) 16:29:28 437.485
STARS 22 Jan 16:27:58 16:31:58 34° 98° (E) 16:35:57 437.465
SRMSAT 22 Jan 16:28:10 16:31:49 17° 176° (S) 16:35:28 437.500
AO-7 22 Jan 16:39:31 16:44:44 18° 267° (W) 16:50:00 29.400- 29.500
JUGNU 22 Jan 16:43:49 16:46:06 12° 192° (SSW) 16:48:24 437.505
CUTE-I 22 Jan 16:50:26 16:54:59 30° 68° (ENE) 16:59:32 437.470
LilacSat-2 22 Jan 16:51:10 16:54:14 24° 71° (ENE) 16:57:19 437.200
O/OREOS (USA 219) 22 Jan 16:51:26 16:54:57 22° 258° (WSW) 16:58:27 437.305
MOZHAYETS 4 22 Jan 16:57:39 17:00:13 15° 294° (WNW) 17:02:48
Cosmos 2504 22 Jan 17:04:48 17:07:03 11° 296° (WNW) 17:09:17 435.465 / 435.565
DANDE 22 Jan 17:07:48 17:09:28 11° 281° (W) 17:11:07 436.750
M-CUBED/EXP-1 PRIME 22 Jan 17:09:40 17:12:14 21° 294° (WNW) 17:14:44 437.505
BEESAT 2 22 Jan 17:14:11 17:16:41 16° 311° (NW) 17:19:13 435.950
KKS-1 22 Jan 17:18:19 17:21:59 26° 290° (WNW) 17:25:38 437.445
HORYU 2 22 Jan 17:22:24 17:26:32 40° 261° (W) 17:30:41 437.375
GOMX 1 22 Jan 17:30:44 17:35:54 45° 261° (W) 17:40:52 467.674
CINEMA 3 22 Jan 17:33:01 17:35:30 15° 68° (ENE) 17:37:55 145.822/145.860
NOAA 15 22 Jan 17:33:31 17:38:47 83° 76° (ENE) 17:44:08 137.62
Cubesat XI-IV 22 Jan 17:33:33 17:38:51 78° 74° (ENE) 17:44:10 437.490
HO-68 22 Jan 17:33:51 17:39:01 22° 60° (ENE) 17:44:11 435.675
BRITE-PL 22 Jan 17:41:26 17:44:59 17° 268° (W) 17:48:33 437.365/2234.400
AUBIESAT-1 22 Jan 17:46:23 17:46:31 10° 298° (WNW) 17:46:41 437.475
CUBESAT XI-V 22 Jan 17:48:57 17:52:52 27° 290° (WNW) 17:56:44 437.345
SO-50 22 Jan 17:49:52 17:51:39 12° 252° (WSW) 17:53:26 436.795
AIST 2 22 Jan 17:55:25 17:58:42 24° 111° (ESE) 18:02:01 435.215
DOVE 4 22 Jan 17:57:16 18:02:12 58° 260° (W) 18:06:53 437.250
NOAA 18 22 Jan 17:58:02 18:03:30 74° 74° (ENE) 18:08:59 137.9125
STARS 22 Jan 18:05:05 18:08:01 18° 293° (WNW) 18:10:58 437.465
CUTE 1.7 + AOD 2 22 Jan 18:08:59 18:12:07 20° 69° (ENE) 18:15:15 437.475
GONETS M04 22 Jan 18:13:12 18:19:23 22° 81° (E) 18:25:35
SRMSAT 22 Jan 18:16:48 18:20:15 16° 187° (S) 18:23:41 437.500
LilacSat-2 22 Jan 18:25:50 18:28:28 18° 266° (W) 18:31:07 437.200
CUTE-I 22 Jan 18:30:21 18:34:55 29° 263° (W) 18:39:31 437.470
CANX-2 22 Jan 18:37:36 18:41:43 52° 75° (ENE) 18:45:53 2200.000
SEEDS 22 Jan 18:43:37 18:47:25 33° 72° (ENE) 18:51:13 437.485
COMPASS 1 22 Jan 18:44:41 18:47:55 22° 70° (ENE) 18:51:10 437.405
AAUSAT CUBESAT 2 22 Jan 18:53:25 18:56:33 21° 70° (ENE) 18:59:42 437.432
STRAND 1 22 Jan 18:57:02 19:01:51 39° 98° (E) 19:06:39 437.568
CINEMA 3 22 Jan 19:08:08 19:12:19 40° 261° (W) 19:16:21 145.822/145.860
Cosmos 2499 22 Jan 19:09:34 19:17:59 70° 93° (E) 19:25:47 435.465 / 435.565
Oscar 11 22 Jan 19:17:59 19:20:33 16° 67° (ENE) 19:23:07 145.826/435.025
Cubesat XI-IV 22 Jan 19:18:35 19:19:25 10° 270° (W) 19:20:16 437.490
HO-68 22 Jan 19:18:55 19:26:03 67° 257° (WSW) 19:33:14 435.675
AIST 2 22 Jan 19:33:32 19:37:03 26° 307° (NW) 19:40:35 435.215
NOAA 18 22 Jan 19:42:37 19:44:37 12° 268° (W) 19:46:38 137.9125
CUTE 1.7 + AOD 2 22 Jan 19:44:03 19:47:44 28° 264° (W) 19:51:26 437.475
CUBEBUG 2 22 Jan 19:45:13 19:49:22 72° 259° (WSW) 19:53:31 437.445
DELFI C3 22 Jan 19:50:38 19:50:49 10° 66° (ENE) 19:51:00 145.870
FUNcube-1 22 Jan 19:56:19 20:00:14 45° 74° (ENE) 20:04:13 145.935
GONETS M04 22 Jan 20:06:40 20:15:18 68° 279° (W) 20:24:02
UWE-3 22 Jan 20:08:07 20:12:12 63° 259° (WSW) 20:16:19 435.000/436.395/437.385
CANX-2 22 Jan 20:16:50 20:17:51 11° 269° (W) 20:18:52 2200.000
PRISM 22 Jan 20:18:16 20:19:09 11° 92° (E) 20:20:02 437.425
COMPASS 1 22 Jan 20:19:50 20:23:18 25° 264° (W) 20:26:49 437.405
SEEDS 22 Jan 20:20:25 20:23:09 17° 266° (W) 20:25:55 437.485
ZACube-1 22 Jan 20:20:46 20:24:54 79° 260° (W) 20:29:03 437.345
AAUSAT CUBESAT 2 22 Jan 20:28:19 20:31:50 26° 264° (W) 20:35:23 437.432
STRAND 1 22 Jan 20:36:52 20:40:44 22° 293° (WNW) 20:44:34 437.568
Oscar 11 22 Jan 20:52:17 20:56:18 39° 262° (W) 21:00:23 145.826/435.025
RS-15 22 Jan 21:01:01 21:08:08 18° 98° (E) 21:15:21 29.354- 29.394
Cosmos 2499 22 Jan 21:05:44 21:11:37 21° 289° (WNW) 21:17:15 435.465 / 435.565
ISS 22 Jan 21:06:07 21:09:21 62° 320° (NW) 21:12:35 145.825
DELFI C3 22 Jan 21:21:10 21:25:05 54° 260° (W) 21:29:02 145.870
BY70-1 22 Jan 21:23:37 21:24:39 11° 67° (ENE) 21:25:42 436.1900
JAS-2 22 Jan 21:26:36 21:30:15 14° 90° (E) 21:33:58 435.910
UNISAT 6 22 Jan 21:27:54 21:31:35 25° 96° (E) 21:35:19 437.425
FUNcube-1 22 Jan 21:35:22 21:36:43 11° 268° (W) 21:38:04 145.935
TIGRISAT 22 Jan 21:40:08 21:44:08 31° 97° (E) 21:48:11 435.000
HUMSAT D 22 Jan 21:43:45 21:47:46 57° 260° (W) 21:51:52 437.325/437.525
ESTCUBE 1 22 Jan 21:45:19 21:48:16 17° 67° (ENE) 21:51:12 437.505/2401.250
AO-85 22 Jan 21:50:43 21:54:20 35° 56° (NE) 21:57:56 145.980
PRISM 22 Jan 21:50:43 21:54:41 48° 286° (WNW) 21:58:36 437.425
ANTELSAT 22 Jan 21:55:47 22:00:09 51° 100° (E) 22:04:37 437.575/2403.000
GONETS M04 22 Jan 22:12:28 22:13:54 10° 299° (WNW) 22:15:19
CUBEBUG 1 22 Jan 22:23:25 22:27:01 25° 70° (ENE) 22:30:37 437.445
ISS 22 Jan 22:45:35 22:46:22 11° 337° (NNW) 22:47:10 145.825
PCSat 22 Jan 22:45:47 22:49:28 19° 105° (ESE) 22:53:09 145.827
AISAT 22 Jan 22:46:50 22:50:42 30° 71° (ENE) 22:54:34 437.250
POPSAT HIP 1 22 Jan 22:50:01 22:52:41 16° 94° (E) 22:55:21 437.405
BY70-1 22 Jan 22:51:58 22:54:33 26° 264° (W) 22:57:17 436.1900
DUCHIFAT 1 22 Jan 22:57:15 23:00:00 17° 94° (E) 23:02:44 145.980
NANOSAT C BR1 22 Jan 23:03:47 23:07:07 22° 96° (E) 23:10:26 145.865
UNISAT 6 22 Jan 23:04:27 23:08:11 26° 290° (WNW) 23:11:59 437.425
RS-15 22 Jan 23:06:52 23:18:38 85° 117° (ESE) 23:31:00 29.354- 29.394
JAS-2 22 Jan 23:08:24 23:15:52 85° 104° (ESE) 23:23:45 435.910
TIGRISAT 22 Jan 23:17:15 23:20:36 21° 291° (WNW) 23:23:59 435.000
VELOX 1 22 Jan 23:19:25 23:23:50 68° 75° (ENE) 23:28:14 145.980
ESTCUBE 1 22 Jan 23:20:28 23:24:42 39° 262° (W) 23:28:59 437.505/2401.250
SPROUT 22 Jan 23:27:31 23:31:41 59° 75° (ENE) 23:35:52 437.525
AO-85 22 Jan 23:32:12 23:34:22 14° 250° (WSW) 23:36:33 145.980
ANTELSAT 22 Jan 23:34:13 23:36:25 14° 294° (WNW) 23:38:39 437.575/2403.000
UKube-1 22 Jan 23:36:17 23:40:11 34° 71° (ENE) 23:44:05 .
YUBILEINY 22 Jan 23:38:00 23:44:04 20° 67° (ENE) 23:50:04 435.215
DX 1 22 Jan 23:42:21 23:46:38 57° 74° (ENE) 23:50:55 434.975-435.025
BEESAT 2 22 Jan 23:57:00 23:58:34 12° 47° (NE) 00:00:09 435.950
QB50P1 22 Jan 23:57:09 00:01:22 73° 284° (WNW) 00:05:35 145.935-145.965
CUBEBUG 1 22 Jan 23:59:35 00:03:11 24° 264° (W) 00:06:47 437.445
50 SAT 23 Jan 00:00:43 00:04:06 42° 261° (W) 00:07:32 437.505
POLYITAN 1 23 Jan 00:02:16 00:06:27 62° 285° (WNW) 00:10:39 437.675
QB50P2 23 Jan 00:03:40 00:07:48 55° 285° (WNW) 00:11:57 145.880/145.840
PHONESAT 2.4 23 Jan 00:07:19 00:09:29 49° 155° (SSE) 00:11:39 2401.200-2431.200
AISAT 23 Jan 00:23:47 00:27:08 21° 265° (W) 00:30:30 437.250
POPSAT HIP 1 23 Jan 00:24:42 00:28:31 34° 288° (WNW) 00:32:21 437.405
Cosmos 2491 23 Jan 00:25:16 00:31:28 22° 81° (E) 00:37:39 435.465 / 435.565
PCSat 23 Jan 00:27:10 00:32:23 50° 300° (WNW) 00:37:41 145.827
DUCHIFAT 1 23 Jan 00:31:56 00:35:42 33° 288° (WNW) 00:39:28 145.980
NANOSAT C BR1 23 Jan 00:39:16 00:42:44 25° 290° (WNW) 00:46:11 145.865
BEESAT 3 23 Jan 00:41:40 00:45:41 82° 61° (ENE) 00:49:40 437.485
ITUPSAT 1 23 Jan 00:41:44 00:42:45 11° 63° (ENE) 00:43:47 437.325
AIST 1 23 Jan 00:42:26 00:46:42 73° 82° (E) 00:50:55
TISAT 1 23 Jan 00:45:26 00:49:33 62° 75° (ENE) 00:53:40 437.305
BUGSAT 1 23 Jan 00:54:41 00:58:37 51° 286° (WNW) 01:02:34 437.445
JAS-2 23 Jan 00:55:21 01:00:03 19° 298° (WNW) 01:04:57 435.910
Cosmos 2504 23 Jan 01:00:57 01:07:24 33° 75° (ENE) 01:13:42 435.465 / 435.565
Oscar 19 23 Jan 01:09:18 01:14:16 46° 99° (E) 01:19:11 437.125/150
BEESAT 23 Jan 01:11:24 01:15:07 23° 68° (ENE) 01:18:52 436.000
SWISSCUBE 23 Jan 01:13:03 01:17:01 27° 69° (ENE) 01:21:01 437.505
UKube-1 23 Jan 01:13:22 01:16:15 17° 265° (W) 01:19:10 .
DX 1 23 Jan 01:22:22 01:23:06 10° 268° (W) 01:23:51 434.975-435.025
RS-15 23 Jan 01:22:35 01:32:45 31° 321° (NW) 01:43:15 29.354- 29.394
CUSAT 1 23 Jan 01:26:35 01:29:18 14° 79° (ENE) 01:32:18 437.405
BEESAT 2 23 Jan 01:32:45 01:36:45 63° 243° (WSW) 01:40:43 435.950
YUBILEINY 23 Jan 01:32:58 01:41:45 77° 266° (W) 01:50:28 435.215
PHONESAT 2.4 23 Jan 01:41:25 01:43:24 27° 350° (N) 01:45:23 2401.200-2431.200
Gurwin Techsat 1B 23 Jan 01:46:12 01:51:26 56° 101° (E) 01:56:38 435.225
ITAMSAT 1 23 Jan 02:00:37 02:02:56 13° 92° (E) 02:05:15 435.822/435.867
ITUPSAT 1 23 Jan 02:15:10 02:19:55 74° 257° (WSW) 02:24:42 437.325
MOZHAYETS 4 23 Jan 02:18:04 02:22:08 33° 71° (ENE) 02:26:13
M-CUBED/EXP-1 PRIME 23 Jan 02:18:38 02:21:30 18° 65° (ENE) 02:24:14 437.505
Cosmos 2491 23 Jan 02:18:47 02:27:25 67° 279° (W) 02:36:07 435.465 / 435.565
KKS-1 23 Jan 02:37:56 02:40:44 17° 67° (ENE) 02:43:30 437.445
DANDE 23 Jan 02:45:37 02:48:01 15° 81° (E) 02:50:47 436.750
BEESAT 23 Jan 02:48:30 02:52:42 31° 263° (W) 02:56:56 436.000
AO-7 23 Jan 02:48:32 02:55:50 33° 98° (E) 03:03:03 29.400- 29.500
Oscar 19 23 Jan 02:49:41 02:53:11 19° 295° (WNW) 02:56:41 437.125/150
SWISSCUBE 23 Jan 02:50:44 02:54:42 26° 264° (W) 02:58:42 437.505
AUBIESAT-1 23 Jan 02:51:44 02:55:31 32° 69° (ENE) 02:59:06 437.475
Cosmos 2504 23 Jan 02:54:12 03:00:42 37° 272° (W) 03:07:06 435.465 / 435.565
CUSAT 1 23 Jan 03:04:51 03:09:57 68° 281° (WNW) 03:16:39 437.405
CUBESAT XI-V 23 Jan 03:12:37 03:15:53 19° 68° (ENE) 03:19:10 437.345
PHONESAT 2.4 23 Jan 03:15:41 03:17:34 23° 6° (N) 03:19:27 2401.200-2431.200
STARS 23 Jan 03:22:10 03:25:32 22° 69° (ENE) 03:28:54 437.465
Gurwin Techsat 1B 23 Jan 03:27:37 03:30:52 17° 296° (WNW) 03:34:06 435.225
YUBILEINY 23 Jan 03:34:20 03:36:57 12° 284° (WNW) 03:39:34 435.215
ISS 23 Jan 03:36:24 03:39:27 37° 37° (NE) 03:42:29 145.825
ITAMSAT 1 23 Jan 03:37:37 03:42:46 64° 286° (WNW) 03:47:55 435.822/435.867
RS-15 23 Jan 03:45:07 03:51:20 15° 356° (N) 03:57:35 29.354- 29.394
M-CUBED/EXP-1 PRIME 23 Jan 03:51:41 03:55:44 36° 256° (WSW) 03:59:32 437.505
MOZHAYETS 4 23 Jan 03:55:57 03:59:18 20° 266° (W) 04:02:41
AIST 2 23 Jan 03:56:36 04:00:52 81° 60° (ENE) 04:05:05 435.215
BRITE-PL 23 Jan 04:10:20 04:13:47 20° 93° (E) 04:17:03 437.365/2234.400
KKS-1 23 Jan 04:12:46 04:16:56 39° 261° (W) 04:21:06 437.445
Cosmos 2491 23 Jan 04:24:49 04:26:00 10° 299° (WNW) 04:27:12 435.465 / 435.565
DANDE 23 Jan 04:26:26 04:30:03 34° 288° (WNW) 04:34:45 436.750
AUBIESAT-1 23 Jan 04:26:59 04:29:53 18° 259° (W) 04:32:41 437.475
AO-7 23 Jan 04:40:47 04:48:44 51° 294° (WNW) 04:56:39 29.400- 29.500
CUBESAT XI-V 23 Jan 04:48:34 04:52:56 38° 262° (W) 04:57:20 437.345
PHONESAT 2.4 23 Jan 04:49:21 04:51:34 88° 22° (NNE) 04:53:46 2401.200-2431.200
STARS 23 Jan 04:57:57 05:01:42 28° 263° (W) 05:05:27 437.465
Cosmos 2499 23 Jan 05:06:27 05:10:46 17° 69° (ENE) 05:15:02 435.465 / 435.565
CUTE-I 23 Jan 05:11:25 05:14:20 15° 92° (E) 05:17:14 437.470
ISS 23 Jan 05:13:33 05:15:41 16° 231° (SW) 05:17:49 145.825
HORYU 2 23 Jan 05:15:46 05:20:03 45° 100° (E) 05:24:20 437.375
O/OREOS (USA 219) 23 Jan 05:20:41 05:25:03 57° 107° (ESE) 05:29:27 437.305
GOMX 1 23 Jan 05:35:54 05:40:12 69° 102° (ESE) 05:44:19 467.674
BRITE-PL 23 Jan 05:48:13 05:52:20 30° 290° (WNW) 05:56:12 437.365/2234.400
NOAA 15 23 Jan 05:51:52 05:56:50 39° 99° (E) 06:01:45 137.62
Cubesat XI-IV 23 Jan 05:53:55 05:58:55 39° 99° (E) 06:03:53 437.490
DOVE 4 23 Jan 05:59:15 06:03:12 43° 99° (E) 06:07:09 437.250
LilacSat-2 23 Jan 06:00:29 06:04:18 55° 100° (E) 06:08:06 437.200
RS-15 23 Jan 06:00:57 06:10:35 25° 33° (NNE) 06:20:00 29.354- 29.394
STRAND 1 23 Jan 06:10:02 06:14:47 42° 72° (ENE) 06:19:35 437.568
SO-50 23 Jan 06:18:34 06:22:55 37° 114° (ESE) 06:27:13 436.795
GONETS M04 23 Jan 06:20:31 06:29:09 54° 79° (E) 06:37:45
NOAA 18 23 Jan 06:23:17 06:28:22 39° 99° (E) 06:33:26 137.9125
CANX-2 23 Jan 06:27:45 06:29:09 11° 91° (E) 06:30:33 2200.000
CUTE-I 23 Jan 06:49:27 06:54:42 59° 287° (WNW) 06:59:56 437.470
HO-68 23 Jan 06:50:32 06:56:32 28° 96° (E) 07:02:29 435.675
HORYU 2 23 Jan 06:53:41 06:56:11 15° 294° (WNW) 06:58:40 437.375
Cosmos 2499 23 Jan 06:57:30 07:04:32 70° 267° (W) 07:11:35 435.465 / 435.565
O/OREOS (USA 219) 23 Jan 07:02:57 07:04:50 12° 303° (WNW) 07:06:42 437.305
CINEMA 3 23 Jan 07:04:54 07:09:03 53° 100° (E) 07:13:21 145.822/145.860
CUTE 1.7 + AOD 2 23 Jan 07:31:04 07:35:19 58° 100° (E) 07:39:31 437.475
NOAA 15 23 Jan 07:32:14 07:36:19 23° 294° (WNW) 07:40:23 137.62
Cubesat XI-IV 23 Jan 07:34:34 07:38:42 23° 293° (WNW) 07:42:50 437.490
PCSat 23 Jan 07:38:22 07:38:44 10° 44° (NE) 07:39:05 145.827
CUBEBUG 2 23 Jan 07:38:40 07:42:30 28° 97° (E) 07:46:25 437.445
DOVE 4 23 Jan 07:38:43 07:40:31 13° 294° (WNW) 07:42:17 437.250
FUNcube-1 23 Jan 07:48:51 07:50:27 12° 92° (E) 07:52:04 145.935
STRAND 1 23 Jan 07:50:31 07:54:06 19° 266° (W) 07:57:42 437.568
SO-50 23 Jan 07:59:40 08:03:27 23° 309° (NW) 08:07:12 436.795
UWE-3 23 Jan 08:00:17 08:04:14 31° 97° (E) 08:08:15 435.000/436.395/437.385
CANX-2 23 Jan 08:01:05 08:05:15 50° 285° (WNW) 08:09:23 2200.000
NOAA 18 23 Jan 08:04:28 08:08:45 24° 294° (WNW) 08:13:03 137.9125
COMPASS 1 23 Jan 08:04:33 08:08:43 60° 101° (E) 08:12:50 437.405
SEEDS 23 Jan 08:05:17 08:09:33 82° 285° (WNW) 08:13:46 437.485
ZACube-1 23 Jan 08:12:01 08:15:41 25° 96° (E) 08:19:22 437.345
AAUSAT CUBESAT 2 23 Jan 08:12:32 08:16:40 56° 100° (E) 08:20:43 437.432
RS-15 23 Jan 08:13:08 08:25:33 77° 59° (ENE) 08:37:22 29.354- 29.394
GONETS M04 23 Jan 08:18:13 08:25:24 29° 276° (W) 08:32:37
UNISAT 6 23 Jan 08:25:14 08:27:37 15° 67° (ENE) 08:30:01 437.425
PRISM 23 Jan 08:36:27 08:40:37 76° 77° (ENE) 08:44:47 437.425
TIGRISAT 23 Jan 08:36:56 08:39:52 19° 68° (ENE) 08:42:49 435.000
HO-68 23 Jan 08:37:35 08:44:24 49° 292° (WNW) 08:51:11 435.675
Oscar 11 23 Jan 08:42:02 08:46:13 44° 99° (E) 08:50:23 145.826/435.025
CINEMA 3 23 Jan 08:44:23 08:45:45 11° 294° (WNW) 08:47:09 145.822/145.860
ANTELSAT 23 Jan 08:52:09 08:55:50 29° 71° (ENE) 08:59:32 437.575/2403.000
DELFI C3 23 Jan 09:01:49 09:04:56 22° 95° (E) 09:08:02 145.870
CUTE 1.7 + AOD 2 23 Jan 09:09:34 09:10:35 11° 295° (WNW) 09:11:36 437.475
CUBEBUG 2 23 Jan 09:15:32 09:18:57 22° 290° (WNW) 09:22:26 437.445
PCSat 23 Jan 09:17:41 09:23:07 69° 62° (ENE) 09:28:30 145.827
JAS-2 23 Jan 09:19:44 09:23:56 23° 64° (ENE) 09:28:25 435.910
FUNcube-1 23 Jan 09:22:35 09:26:55 53° 285° (WNW) 09:31:18 145.935
HUMSAT D 23 Jan 09:30:05 09:33:45 27° 96° (E) 09:37:24 437.325/437.525
UWE-3 23 Jan 09:37:10 09:40:28 21° 290° (WNW) 09:43:49 435.000/436.395/437.385
ZACube-1 23 Jan 09:48:10 09:51:50 26° 289° (WNW) 09:55:33 437.345
AAUSAT CUBESAT 2 23 Jan 09:50:47 09:51:35 10° 295° (WNW) 09:52:23 437.432
NANOSAT C BR1 23 Jan 09:54:47 09:56:22 12° 66° (ENE) 09:57:56 145.865
UNISAT 6 23 Jan 09:59:59 10:03:58 39° 261° (W) 10:07:59 437.425
TIGRISAT 23 Jan 10:12:34 10:16:19 30° 263° (W) 10:20:06 435.000
Oscar 11 23 Jan 10:19:37 10:21:56 14° 293° (WNW) 10:24:15 145.826/435.025
RS-15 23 Jan 10:27:24 10:36:40 27° 259° (WSW) 10:45:42 29.354- 29.394
ANTELSAT 23 Jan 10:29:32 10:32:33 19° 265° (W) 10:35:35 437.575/2403.000
DELFI C3 23 Jan 10:36:30 10:39:37 22° 290° (WNW) 10:42:43 145.870
QB50P1 23 Jan 10:46:21 10:50:26 54° 74° (ENE) 10:54:31 145.935-145.965
POLYITAN 1 23 Jan 10:51:33 10:55:40 64° 76° (ENE) 10:59:50 437.675
QB50P2 23 Jan 10:52:53 10:57:03 72° 76° (ENE) 11:01:14 145.880/145.840
PCSat 23 Jan 11:03:25 11:05:50 13° 257° (WSW) 11:08:15 145.827
JAS-2 23 Jan 11:03:43 11:08:41 39° 263° (W) 11:14:06 435.910
HUMSAT D 23 Jan 11:05:52 11:09:10 22° 290° (WNW) 11:12:29 437.325/437.525
POPSAT HIP 1 23 Jan 11:13:32 11:17:42 70° 259° (W) 11:21:53 437.405
VELOX 1 23 Jan 11:13:40 11:16:19 16° 94° (E) 11:18:57 145.980
ESTCUBE 1 23 Jan 11:15:29 11:19:55 52° 100° (E) 11:24:18 437.505/2401.250
SPROUT 23 Jan 11:18:01 11:19:49 12° 92° (E) 11:21:37 437.525
DUCHIFAT 1 23 Jan 11:20:06 11:24:13 68° 258° (WSW) 11:28:23 145.980
NANOSAT C BR1 23 Jan 11:27:34 11:31:36 49° 260° (W) 11:35:40 145.865
BY70-1 23 Jan 11:28:44 11:31:36 32° 287° (WNW) 11:34:15 436.1900
50 SAT 23 Jan 11:30:01 11:32:06 15° 94° (E) 11:34:11 437.505
DX 1 23 Jan 11:35:29 11:37:09 12° 93° (E) 11:38:49 434.975-435.025
BUGSAT 1 23 Jan 11:41:02 11:45:04 69° 76° (ENE) 11:49:04 437.445
CUBEBUG 1 23 Jan 11:50:00 11:54:19 75° 102° (ESE) 11:58:36 437.445
CUSAT 1 23 Jan 12:01:58 12:05:35 14° 61° (ENE) 12:09:03 437.405
AO-85 23 Jan 12:02:02 12:06:07 27° 113° (ESE) 12:09:56 145.980
AISAT 23 Jan 12:15:21 12:19:45 89° 276° (W) 12:24:07 437.250
Oscar 19 23 Jan 12:23:04 12:28:05 51° 73° (ENE) 12:33:07 437.125/150
Cosmos 2491 23 Jan 12:32:42 12:41:17 54° 79° (ENE) 12:49:51 435.465 / 435.565
TISAT 1 23 Jan 12:34:13 12:35:41 12° 93° (E) 12:37:09 437.305
YUBILEINY 23 Jan 12:35:35 12:42:19 25° 82° (E) 12:49:03 435.215
